DLH4MK EDDL-EDDF

Flight info

Callsign DLH4MK
Flight time 0h 24m
Altitude 23000
Route COL5Z COL T911 ROLIS ROLIS5D
Aircraft A20N/M-SDE2E3FGIJ1LORWXYZ/HB1

Departure

Time 2026-05-07 22:20
Airport Düsseldorf Airport (EDDL)

Arrival

Time 2026-05-07 22:44
Airport Frankfurt Main Airport (EDDF)
Time Latitude Longitude Altitude Speed Heading
2026-05-07 22:00 51.28068 6.76532 137 ft 0 kts 96°
2026-05-07 22:08 51.28071 6.76500 137 ft 4 kts 96°
2026-05-07 22:08 51.28072 6.76469 137 ft 4 kts 46°
2026-05-07 22:09 51.28050 6.76456 137 ft 4 kts 355°
2026-05-07 22:09 51.28065 6.76448 137 ft 3 kts 329°
2026-05-07 22:09 51.28069 6.76444 137 ft 0 kts 327°
2026-05-07 22:10 51.28068 6.76532 137 ft 0 kts 96°
2026-05-07 22:14 51.28072 6.76540 137 ft 0 kts 52°
2026-05-07 22:14 51.28078 6.76533 137 ft 1 kts 319°
2026-05-07 22:15 51.28074 6.76498 137 ft 7 kts 264°
2026-05-07 22:15 51.28101 6.76409 137 ft 12 kts 317°
2026-05-07 22:15 51.28164 6.76283 137 ft 14 kts 310°
2026-05-07 22:15 51.28194 6.76203 137 ft 11 kts 276°
2026-05-07 22:16 51.28151 6.76071 137 ft 16 kts 232°
2026-05-07 22:16 51.28074 6.75908 137 ft 19 kts 235°
2026-05-07 22:16 51.27996 6.75748 136 ft 18 kts 236°
2026-05-07 22:16 51.27940 6.75627 136 ft 9 kts 234°
2026-05-07 22:17 51.27888 6.75513 136 ft 16 kts 234°
2026-05-07 22:17 51.27842 6.75364 136 ft 15 kts 287°
2026-05-07 22:17 51.27880 6.75316 135 ft 0 kts 333°
2026-05-07 22:18 51.27954 6.75256 128 ft 14 kts 333°
2026-05-07 22:18 51.27975 6.75250 130 ft 3 kts 12°
2026-05-07 22:19 51.28005 6.75296 130 ft 9 kts 51°
2026-05-07 22:19 51.28067 6.75426 130 ft 32 kts 53°
2026-05-07 22:19 51.28394 6.76118 132 ft 120 kts 53°
2026-05-07 22:19 51.28979 6.77341 599 ft 143 kts 52°
2026-05-07 22:20 51.29593 6.78614 1452 ft 147 kts 53°
2026-05-07 22:20 51.30232 6.79923 2311 ft 153 kts 52°
2026-05-07 22:20 51.30910 6.81310 3093 ft 163 kts 52°
2026-05-07 22:20 51.31635 6.82790 3907 ft 178 kts 51°
2026-05-07 22:21 51.32440 6.84420 4807 ft 196 kts 51°
2026-05-07 22:21 51.33333 6.86214 5826 ft 216 kts 51°
2026-05-07 22:21 51.34304 6.88173 6962 ft 233 kts 53°
2026-05-07 22:21 51.35126 6.90497 8164 ft 247 kts 67°
2026-05-07 22:22 51.35620 6.93188 9450 ft 258 kts 80°
2026-05-07 22:22 51.35738 6.96083 10746 ft 264 kts 93°
2026-05-07 22:22 51.35461 6.99007 12055 ft 268 kts 105°
2026-05-07 22:22 51.34802 7.01791 13420 ft 268 kts 118°
2026-05-07 22:23 51.33798 7.04278 14730 ft 265 kts 131°
2026-05-07 22:23 51.32442 7.06305 15749 ft 276 kts 146°
2026-05-07 22:23 51.30779 7.08089 16352 ft 301 kts 150°
2026-05-07 22:23 51.28922 7.09914 16891 ft 326 kts 150°
2026-05-07 22:24 51.26902 7.11867 17368 ft 352 kts 150°
2026-05-07 22:24 51.24740 7.13970 17890 ft 373 kts 150°
2026-05-07 22:24 51.22510 7.16163 18827 ft 379 kts 150°
2026-05-07 22:24 51.20252 7.18393 19745 ft 385 kts 149°
2026-05-07 22:25 51.17961 7.20660 20658 ft 390 kts 150°
2026-05-07 22:25 51.15637 7.22956 21553 ft 396 kts 150°
2026-05-07 22:25 51.13276 7.25287 22377 ft 403 kts 150°
2026-05-07 22:25 51.10889 7.27640 22521 ft 404 kts 150°
2026-05-07 22:26 51.08497 7.29994 22634 ft 405 kts 150°
2026-05-07 22:26 51.06098 7.32352 22752 ft 406 kts 150°
2026-05-07 22:26 51.03694 7.34712 22872 ft 406 kts 150°
2026-05-07 22:26 51.01285 7.37073 22987 ft 407 kts 150°
2026-05-07 22:27 50.98872 7.39436 23102 ft 408 kts 150°
2026-05-07 22:27 50.96454 7.41801 23103 ft 408 kts 150°
2026-05-07 22:27 50.94037 7.44161 23103 ft 408 kts 150°
2026-05-07 22:27 50.91622 7.46517 23104 ft 408 kts 150°
2026-05-07 22:28 50.89201 7.48876 23101 ft 408 kts 150°
2026-05-07 22:28 50.86785 7.51227 23099 ft 408 kts 150°
2026-05-07 22:28 50.84365 7.53579 23102 ft 408 kts 150°
2026-05-07 22:28 50.82000 7.55875 23104 ft 408 kts 150°
2026-05-07 22:29 50.79557 7.58155 23100 ft 407 kts 155°
2026-05-07 22:29 50.76947 7.60032 23100 ft 407 kts 157°
2026-05-07 22:29 50.74400 7.61849 23098 ft 407 kts 157°
2026-05-07 22:29 50.71784 7.63703 23094 ft 407 kts 158°
2026-05-07 22:30 50.69200 7.65513 23095 ft 407 kts 158°
2026-05-07 22:30 50.66608 7.67314 23095 ft 407 kts 158°
2026-05-07 22:30 50.64064 7.69075 22888 ft 403 kts 158°
2026-05-07 22:30 50.61507 7.70840 22331 ft 400 kts 158°
2026-05-07 22:31 50.58959 7.72595 21561 ft 398 kts 158°
2026-05-07 22:31 50.56431 7.74334 20797 ft 395 kts 158°
2026-05-07 22:31 50.53926 7.76056 20039 ft 391 kts 158°
2026-05-07 22:31 50.51444 7.77760 19301 ft 387 kts 158°
2026-05-07 22:32 50.48985 7.79446 18587 ft 384 kts 158°
2026-05-07 22:32 50.46551 7.81114 17805 ft 380 kts 158°
2026-05-07 22:32 50.44137 7.82767 17002 ft 376 kts 158°
2026-05-07 22:32 50.41750 7.84399 16212 ft 373 kts 158°
2026-05-07 22:33 50.39383 7.86017 15461 ft 369 kts 158°
2026-05-07 22:33 50.37023 7.87570 14711 ft 366 kts 160°
2026-05-07 22:33 50.34636 7.88889 13991 ft 362 kts 163°
2026-05-07 22:33 50.32255 7.90132 13196 ft 359 kts 163°
2026-05-07 22:34 50.29891 7.91352 12417 ft 357 kts 163°
2026-05-07 22:34 50.27540 7.92546 11651 ft 354 kts 163°
2026-05-07 22:34 50.25207 7.93710 10895 ft 351 kts 163°
2026-05-07 22:34 50.22916 7.94835 10644 ft 336 kts 163°
2026-05-07 22:35 50.20681 7.95927 10541 ft 338 kts 163°
2026-05-07 22:35 50.18459 7.97009 10446 ft 328 kts 163°
2026-05-07 22:35 50.16314 7.98053 10068 ft 320 kts 163°
2026-05-07 22:35 50.14192 7.99089 9404 ft 319 kts 163°
2026-05-07 22:36 50.12076 8.00122 8740 ft 318 kts 163°
2026-05-07 22:36 50.09971 8.01148 8101 ft 317 kts 163°
2026-05-07 22:36 50.07873 8.02170 7468 ft 315 kts 163°
2026-05-07 22:36 50.05760 8.03199 6839 ft 313 kts 163°
2026-05-07 22:37 50.03713 8.04194 6216 ft 311 kts 163°
2026-05-07 22:37 50.01649 8.05190 5596 ft 309 kts 163°
2026-05-07 22:37 49.99659 8.06134 5471 ft 290 kts 163°
2026-05-07 22:37 49.97785 8.07016 5357 ft 273 kts 163°
2026-05-07 22:38 49.96065 8.08025 5237 ft 258 kts 147°
2026-05-07 22:38 49.94971 8.10053 5095 ft 239 kts 109°
2026-05-07 22:38 49.94876 8.12506 4981 ft 223 kts 78°
2026-05-07 22:38 49.95295 8.14749 4859 ft 215 kts 69°
2026-05-07 22:39 49.95842 8.16926 4739 ft 214 kts 68°
2026-05-07 22:39 49.96338 8.18987 4643 ft 193 kts 69°
2026-05-07 22:39 49.96789 8.20863 4421 ft 180 kts 68°
2026-05-07 22:39 49.97221 8.22662 4199 ft 180 kts 69°
2026-05-07 22:40 49.97655 8.24470 3960 ft 177 kts 69°
2026-05-07 22:40 49.98083 8.26254 3715 ft 176 kts 69°
2026-05-07 22:40 49.98508 8.28025 3477 ft 174 kts 69°
2026-05-07 22:40 49.98929 8.29781 3225 ft 173 kts 69°
2026-05-07 22:41 49.99347 8.31524 2974 ft 172 kts 69°
2026-05-07 22:41 49.99764 8.33254 2737 ft 170 kts 69°
2026-05-07 22:41 50.00186 8.34964 2489 ft 169 kts 69°
2026-05-07 22:41 50.00614 8.36647 2252 ft 165 kts 68°
2026-05-07 22:42 50.01016 8.38263 2005 ft 154 kts 70°
2026-05-07 22:42 50.01343 8.39778 1761 ft 142 kts 72°
2026-05-07 22:42 50.01653 8.41193 1556 ft 148 kts 70°
2026-05-07 22:42 50.02039 8.42732 1372 ft 147 kts 68°
2026-05-07 22:43 50.02407 8.44160 1141 ft 138 kts 69°
2026-05-07 22:43 50.02716 8.45575 937 ft 140 kts 70°
2026-05-07 22:43 50.03056 8.47004 739 ft 140 kts 68°
2026-05-07 22:43 50.03391 8.48409 557 ft 137 kts 67°
2026-05-07 22:44 50.03722 8.49769 368 ft 132 kts 67°
2026-05-07 22:44 50.04023 8.51026 325 ft 106 kts 70°
2026-05-07 22:44 50.04214 8.51820 333 ft 59 kts 70°
2026-05-07 22:44 50.04335 8.52335 345 ft 44 kts 69°
2026-05-07 22:45 50.04396 8.52684 354 ft 30 kts 87°
2026-05-07 22:45 50.04372 8.52994 358 ft 27 kts 98°
2026-05-07 22:45 50.04353 8.53269 364 ft 24 kts 83°
2026-05-07 22:45 50.04393 8.53511 375 ft 23 kts 79°
2026-05-07 22:46 50.04414 8.53777 375 ft 27 kts 84°
2026-05-07 22:46 50.04434 8.54085 375 ft 30 kts 87°
2026-05-07 22:46 50.04451 8.54348 373 ft 25 kts 83°
2026-05-07 22:46 50.04415 8.54635 364 ft 23 kts 121°
2026-05-07 22:47 50.04265 8.54796 359 ft 30 kts 159°
2026-05-07 22:47 50.04103 8.54891 350 ft 15 kts 159°
2026-05-07 22:47 50.04019 8.54994 356 ft 16 kts 97°
2026-05-07 22:47 50.04059 8.55180 356 ft 20 kts 68°
2026-05-07 22:48 50.04112 8.55407 358 ft 25 kts 69°
2026-05-07 22:48 50.04172 8.55660 359 ft 9 kts 70°
2026-05-07 22:48 50.04185 8.55715 358 ft 10 kts 70°
2026-05-07 22:48 50.04213 8.55835 358 ft 13 kts 71°
2026-05-07 22:49 50.04251 8.55947 363 ft 10 kts 35°
2026-05-07 22:49 50.04311 8.55945 356 ft 8 kts 342°
2026-05-07 22:49 50.04366 8.55923 360 ft 8 kts 359°
2026-05-07 22:49 50.04417 8.55978 356 ft 11 kts 60°
2026-05-07 22:50 50.04451 8.56092 357 ft 12 kts 71°
2026-05-07 22:50 50.04477 8.56216 361 ft 12 kts 73°
2026-05-07 22:50 50.04505 8.56341 360 ft 12 kts 70°
2026-05-07 22:50 50.04550 8.56439 358 ft 11 kts 32°
2026-05-07 22:51 50.04615 8.56480 356 ft 10 kts 24°
2026-05-07 22:51 50.04658 8.56491 357 ft 5 kts 352°
2026-05-07 22:51 50.04690 8.56478 360 ft 5 kts 340°
2026-05-07 22:51 50.04717 8.56453 360 ft 5 kts 320°
2026-05-07 22:52 50.04744 8.56421 361 ft 5 kts 322°
2026-05-07 22:52 50.04757 8.56404 359 ft 0 kts 319°
2026-05-07 22:52 50.04758 8.56403 359 ft 0 kts 319°